Simultaneous Nadir Overpasses (SNOs) Predictions

Prediction of SNOs between AQUA and GOES-15 Satellite Orbit:

Table of predicted SNOs for the next 14.0 days since TLE Epoch: 7/9/2022
Index Date Time (AQUA) AQUA Lat,Lon GOES-15 Lat,Lon Distance(km) Time Diff (sec)
1 07/09/2022 10:02:48 -0.72,-126.03 -0.18,-128.46 276.38 80
2 07/09/2022 22:24:06 -0.39,-131.20 0.21,-128.45 313.01 80
3 07/11/2022 22:11:30 0.25,-128.13 0.21,-128.42 33.03 80
4 07/13/2022 21:58:54 0.90,-125.06 0.21,-128.40 378.43 80
5 07/14/2022 10:20:04 0.13,-130.20 -0.24,-128.40 204.53 80
6 07/16/2022 10:07:27 -0.48,-127.13 -0.24,-128.37 140.85 80
7 07/16/2022 22:28:45 -0.55,-132.30 0.26,-128.34 449.61 80
8 07/18/2022 09:54:51 -1.15,-124.06 -0.23,-128.34 486.38 80
9 07/18/2022 22:16:09 0.06,-129.23 0.26,-128.32 103.88 80
10 07/20/2022 22:03:32 0.69,-126.16 0.26,-128.28 241.54 80
11 07/21/2022 10:24:41 0.33,-131.30 -0.28,-128.30 340.68 80
